Zurück zum Katalog

STARLINK-37680

AktivKommunikationVLEO
NORAD 69240·PAYLOAD·🇺🇸 United States

Gestartet May 29, 2026 von Cape Canaveral Space Force Station

Loading…

Nächste Überflüge (nächste 24 Stunden)

TLE

AktuellSource: CelesTrak SupGP

Epoche: Sep 14, 2026, 22:49 UTC

1 69240C 26117C   26257.95118056 -.00047253  00000+0 -13957-2 0  2571
2 69240  53.1568 179.7349 0001270  93.5674 295.0521 15.34422850    14

Verfolge STARLINK-37680 in Echtzeit mit AllMySat

Download on the App Store